Home   Weather   Freeport   Past weeks

Flag for Bahamas Past Weather in Freeport, Bahamas — Yesterday and Last 2 Weeks

Now
77 °F

Passing clouds.


Feels Like: 79 °F
Forecast: 72 / 78 °F
Wind: 14 mph from Southwest

Location: Freeport - Grand Bahama

Current Time: Jan 21, 2017 at 10:37:22 am

Latest Report: Jan 21, 2017 at 10:00 am


Visibility: N/A

Pressure: 29.98 "Hg

Humidity: 69%

Dew Point: 66 °F

Location of FreeportLocation

Past Weather in Freeport — Graph

°F

Freeport Temperature Yesterday

Maximum temperature yesterday: 79 °F (at 1:00 pm)
Minimum temperature yesterday: 63 °F (at 7:00 am)
Average temperature yesterday: 73 °F

High & Low Weather Summary for the Past Weeks

 TemperatureHumidityPressure
High82 °F (Jan 7, 11:00 am)100% (Jan 21, 7:00 am)30.51 "Hg (Jan 21, 7:00 am)
Low59 °F (Jan 9, 6:00 am)47% (Jan 18, 10:00 pm)29.94 "Hg (Jan 20, 3:00 pm)
Average71 °F72%30.20 "Hg
* Reported Jan 6 9:00 am — Jan 21 9:00 am, Freeport, Weather by CustomWeather, © 2017

Note: Actual official high and low records may vary slightly from our data, if they occured in-between our weather recording intervals... More about our weather records

Advertising

Freeport Weather History for the Previous 24 Hours

Scroll right to see more
 ConditionsComfort  
Time TempWeatherWind HumidityBarometerVisibility
9:00 am
Sat, Jan 21
77 °FPassing clouds.8 mph74%29.96 "HgN/A
8:00 am73 °FPassing clouds.3 mph83%29.97 "HgN/A
7:00 am68 °FPassing clouds.No wind100%29.96 "HgN/A
6:00 am70 °FPassing clouds.No wind94%29.97 "HgN/A
10:00 pm
Fri, Jan 20
72 °FClear.7 mph83%29.98 "Hg10 mi
9:00 pm72 °FClear.3 mph83%29.98 "Hg10 mi
8:00 pm72 °FClear.3 mph83%29.98 "Hg10 mi
7:00 pm72 °FPassing clouds.No wind83%29.97 "HgN/A
6:00 pm75 °FPassing clouds.5 mph74%29.97 "HgN/A
5:00 pm77 °FScattered clouds.8 mph69%29.96 "HgN/A
4:00 pm77 °FScattered clouds.12 mph69%29.94 "HgN/A
3:00 pm79 °FScattered clouds.10 mph65%29.94 "HgN/A
2:00 pm79 °FPassing clouds.12 mph61%29.95 "HgN/A
1:00 pm79 °FScattered clouds.9 mph58%29.97 "HgN/A
12:00 pm77 °FPartly sunny.10 mph65%30.00 "HgN/A
11:00 am77 °FPartly sunny.10 mph65%30.01 "HgN/A
10:00 am77 °FPartly sunny.9 mph65%30.02 "HgN/A
Weather by CustomWeather, © 2017

See weather overviewHow to use our weather pages